Location: Recife
(8.0585°S, 34.8848°W)
Time: 11:41:34
(UTC-03:00)

Vanguard 2 Rocket - Pass Details

Date: 16 April 2026
Orbit: 553 x 3286 km, 32.9° (Epoch: 7 May)

Event Time Altitude Azimuth Distance (km) Brightness Sun altitude
Rises 12:53:16 0° 233° (SW) 6,738 11.4 60.3°
Reaches altitude 10° 12:57:32 10° 229° (SW) 5,935 11.3 59.4°
Maximum altitude 13:17:22 68° 148° (SSE) 3,402 10.4 55.4°
Drops below altitude 10° 13:34:40 10° 68° (ENE) 5,314 10.7 51.6°
Sets 13:38:12 0° 65° (ENE) 6,037 10.9 50.9°
